Regional Weather Roundup
Issued by NWS

Home | Current Version | Previous Version | Text Only | Print | Product List | Glossary Off
Versions: 1 2 3 4 5 6 7 8 9 10 11 12 13 14 15 16 17 18 19 20 21 22 23 24 25 26 27 28 29 30 31 32 33 34 35 36 37 38 39 40 41 42 43 44 45 46 47 48 49 50

250
ASUS43 KMKX 250821
RWRWI

WISCONSIN REGIONAL WEATHER ROUNDUP
NATIONAL WEATHER SERVICE MILWAUKEE/SULLIVAN WI
300 AM CDT SAT MAR 25 2017

NOTE: "FAIR" INDICATES FEW OR NO CLOUDS BELOW 12,000 FEET WITH NO
SIGNIFICANT WEATHER AND/OR OBSTRUCTIONS TO VISIBILITY.

WIZ001-002-006>008-014>016-023>028-250900-
NORTHWEST WISCONSIN

CITY           SKY/WX    TMP DP  RH WIND       PRES   REMARKS
SUPERIOR ARPT  CLOUDY    34  32  93 NE10      30.26F WCI  26
ASHLAND        CLOUDY    33  30  88 NE8       30.26F WCI  26
HAYWARD        CLOUDY    35  29  78 NE6       30.21F WCI  30
SIREN          CLOUDY    35  29  79 E7        30.22R WCI  29
CUMBERLAND     CLOUDY    34  30  86 NE7       30.20R WCI  28
RICE LAKE      CLOUDY    35  31  86 CALM      30.21S
CHETEK         CLOUDY    35  31  86 NE7       30.20R WCI  29
LADYSMITH      CLOUDY    36  32  85 E7        30.21S WCI  30
EAU CLAIRE     CLOUDY    37  32  82 NE9       30.18R WCI  30
MENOMONIE      CLOUDY    38  32  79 N9        30.19R WCI  31
NEW RICHMOND   CLOUDY    36  31  82 NE6       30.18F WCI  31
OSCEOLA        CLOUDY    36  31  83 NE6       30.23R WCI  31
$$

WIZ003>005-009-010-017-018-250900-
NORTH CENTRAL WISCONSIN

CITY           SKY/WX    TMP DP  RH WIND       PRES   REMARKS
MANITOWISH WTR CLOUDY    32  32 100 NE6       30.20F WCI  26
ARBOR VITAE    CLOUDY    34  32  92 E5        30.17F WCI  30
WOODRUFF       CLOUDY    34  32  92 E5        30.17F WCI  30
RHINELANDER    CLOUDY    34  31  88 E9        30.19F WCI  27
EAGLE RIVER    LGT SNOW  32  32 100 E6        30.18F WCI  26
LAND O LAKES   LGT SNOW  32  32 100 NE3       30.22F
PHILLIPS       CLOUDY    32  30  92 E7        30.18F WCI  26
TOMAHAWK       CLOUDY    32  29  88 NE7       30.19S WCI  26
MEDFORD        CLOUDY    33  30  92 NE10      30.16R WCI  24
MERRILL        CLOUDY    33  32  94 E8        30.19R WCI  26
$$

WIZ029-030-035-036-043>047-250900-
CENTRAL WISCONSIN

CITY           SKY/WX    TMP DP  RH WIND       PRES   REMARKS
WAUSAU         CLOUDY    33  31  92 E6        30.17R WCI  28
MOSINEE        CLOUDY    32  32 100 E17       30.18R WCI  21
MARSHFIELD     CLOUDY    34  31  88 E10       30.15R WCI  26
STEVENS POINT  CLOUDY    32  32  99 NE12G18   30.18R WCI  23
WAUPACA        CLOUDY    36  33  90 NE7       30.17S WCI  30
WAUTOMA        CLOUDY    35  33  92 NE12      30.16S WCI  27
WISC RAPIDS    CLOUDY    35  33  92 NE9       30.17S WCI  28
CAMP DOUGLAS   CLOUDY    36  34  93 E7        30.13F WCI  30
$$

WIZ011>013-019>022-031-037>040-048>050-250900-
NORTHEAST WISCONSIN

CITY           SKY/WX    TMP DP  RH WIND       PRES   REMARKS
ANTIGO         CLOUDY    32  30  95 E13       30.17F WCI  22
SHAWANO        CLOUDY    36  32  86 NE9       30.19S WCI  29
OCONTO         CLOUDY    34  32  92 NE7       30.19F WCI  28
STURGEON BAY   CLOUDY    35  32  88 NE10      30.20S WCI  27
GREEN BAY      CLOUDY    35  34  96 NE16      30.18F WCI  25
MANITOWOC      CLOUDY    36  34  92 NE13G20   30.15F WCI  27
APPLETON       CLOUDY    34  34 100 NE13      30.13F WCI  25
CLINTONVILLE   CLOUDY    34  32  93 NE10      30.18S WCI  26
OSHKOSH        CLOUDY    35  32  88 NE13      30.13F WCI  26
$$

WIZ032>034-041-042-053>061-250900-
SOUTHWEST WISCONSIN

CITY           SKY/WX    TMP DP  RH WIND       PRES   REMARKS
LA CROSSE      CLOUDY    40  35  83 E14       30.12F WCI  32
SPARTA         CLOUDY    37  35  94 NE8       30.14F WCI  30
VIROQUA        CLOUDY    36  36 100 E14       30.08F WCI  27
BOSCOBEL       CLOUDY    38  36  92 NE8G16    30.10S FOG     WCI  32
PRAIRIE DU CHI CLOUDY    37  36  96 NE7       30.07S WCI  32
PLATTEVILLE    CLOUDY    38  38 100 NE17      30.05F WCI  28
$$

WIZ056-057-062-063-064-067-068-250900-
SOUTH CENTRAL WISCONSIN

CITY           SKY/WX    TMP DP  RH WIND       PRES   REMARKS
REEDSBURG      DRIZZLE   35  35 100 NE12G18   30.12S WCI  26
BARABOO/DELLS  CLOUDY    35  33  95 NE12      30.12S FOG     WCI  26
LONE ROCK      CLOUDY    38  34  85 E12       30.11F FOG     WCI  30
MINERAL POINT  CLOUDY    37  37 100 NE13G20   30.07R FOG     WCI  29
MADISON        CLOUDY    36  34  92 NE10      30.10R WCI  28
MIDDLETON      CLOUDY    38  36  93 NE10      30.10F WCI  30
WATERTOWN      DRIZZLE   36  36 100 NE8       30.09S WCI  30
MONROE         CLOUDY    36  36 100 NE17      30.05S WCI  25
JANESVILLE     CLOUDY    37  37 100 NE8       30.06S WCI  31
$$

WIZ051-052-058>065-066-070>072-250900-
SOUTHEAST WISCONSIN

CITY           SKY/WX    TMP DP  RH WIND       PRES   REMARKS
MILWAUKEE      LGT RAIN  38  34  85 NE16      30.09F WCI  29
WAUKESHA       LGT RAIN  34  32  93 NE15G21   30.09F WCI  24
MILWAUKEE/TIMM DRIZZLE   36  32  87 NE12G21   30.10F WCI  27
RACINE         LGT RAIN  37  34  89 N16G24    30.09F WCI  28
KENOSHA        CLOUDY    37  35  92 NE13      30.07F WCI  29
FOND DU LAC    CLOUDY    36  32  85 NE13      30.12F WCI  27
SHEBOYGAN      CLOUDY    36  33  89 NE17      30.13S WCI  26
WEST BEND      LGT RAIN  36  36 100 NE15      30.10F WCI  26
JUNEAU         CLOUDY    35  33  93 NE8       30.11R WCI  29
$$

LSZ147-162-250900-
LAKE SUPERIOR

STATION/POSITION TIME  TEMP    WIND        PRES    WAVE
                       AIR SEA DIR/SP/G            HT/PER
                 (UTC) (F)     (DEG/KT/KT) (MB)    (FT/S)
DEVILS ISLAND    0800   34      70/ 14/ 15 1026.6F
PORT WING        0740   35      70/  6/  9 1025.4F
SAXON HARBOR     0740   33      70/  5/  6 1024.7S
$$

LMZ867-665-643>646-250900-
LAKE MICHIGAN

STATION/POSITION TIME  TEMP    WIND        PRES    WAVE
                       AIR SEA DIR/SP/G            HT/PER
                 (UTC) (F)     (DEG/KT/KT) (MB)    (FT/S)
CHAMBERS ISLAND  0740   33      20/ 10/ 12 1022.7S
NORTHPORT PIER   0740   36      40/ 11/ 14 1023.4S
SISTER BAY       0705   34      10/  6/  6   N/A
KEWAUNEE LAKESHO 0800   35      30/ 11/ 16 1021.2
SHEBOYGAN LAKESH 0800   36      20/ 19/ 20 1020.9R
PORT WASHINGTON  0800   37      30/ 15/ 24 1020.3
MILWAUKEE LAKESH 0800   37      20/ 18/ 21   N/A
KENOSHA   LAKESH 0800   37      20/ 19/ 23 1018.3
$$

TC  - TEMPERATURE IN CELSIUS
VSB - VISIBILITY IN STATUTE MILES
WCI - WIND CHILL INDEX
HX  - HEAT INDEX





USA.gov is the U.S. government's official web portal to all federal, state and local government web resources and services.